Lytton, British Columbia

5:08 AM PDT on September 26, 2017 (GMT -0700)
Lytton

Weather History for CWLY - July, 2013

Change the Weather History Date:

Monday, July 1, 2013

  Actual Average Record
Temperature  
Mean Temperature 82 °F -  
Max Temperature 104 °F 81 °F 104 °F (2013)
Min Temperature 59 °F 58 °F 50 °F (2010)
Cooling Degree Days 16    
Growing Degree Days 32 (Base 50)    
Moisture  
Dew Point 50 °F    
Average Humidity 35    
Maximum Humidity 59    
Minimum Humidity 13    
Precipitation  
Precipitation 0.02 in 0.02 in - ()
Sea Level Pressure  
Sea Level Pressure 29.91 in    
Wind  
Wind Speed 4 mph ()    
Max Wind Speed 17 mph    
Max Gust Speed 32 mph    
Visibility 9.0 miles    
Events      
Averages and records for this station are not official NWS values.
T = Trace of Precipitation, MM = Missing Value Source: Averaged Metar Reports

Daily Weather History Graph

Daily Weather History Graph

Search for Another Location

Airport or City:

Trip Planner

Search our weather history database for the weather conditions in past years. The results will help you decide how hot, cold, wet, or windy it might be!

Date:

Astronomy

Jul. 01, 2013 Rise Set
Actual Time 5:00 AM PDT 9:19 PM PDT
Civil Twilight 4:15 AM PDT 10:04 PM PDT
Nautical Twilight 3:10 AM PDT 11:09 PM PDT
Astronomical Twilight 1:42 AM PDT 12:37 AM PDT
Moon 12:57 AM PDT (7/1) 3:19 PM PDT (7/1)
Length of Visible Light 17h 48m
Length of Day
16h 19m
Waning Crescent, 34% of the Moon is Illuminated
Jul 1
Waning Crescent
Jul 8
New
Jul 15
First Quarter
Jul 22
Full
Jul 29
Last Quarter

Hourly Weather History & Observations

Time (PDT) Temp. Heat Index Dew Point Humidity Pressure Visibility Wind Dir Wind Speed Gust Speed Precip Events Conditions
12:00 AM 68.0 °F - 46.4 °F 46% 29.96 in 9.0 mi Calm Calm - N/A   Clear
1:00 AM 64.4 °F - 46.4 °F 52% 29.97 in 9.0 mi SSE 3.5 mph - N/A   Clear
2:00 AM 65 °F - 46 °F 40% 29.98 in 9 mi SSE 3.5 mph - -  
2:00 AM 64.4 °F - 46.4 °F 52% 29.98 in 9.0 mi SSE 3.5 mph - N/A   Clear
3:00 AM 64.4 °F - 46.4 °F 52% 29.99 in 9.0 mi SSE 3.5 mph - N/A   Clear
4:00 AM 62.6 °F - 46.4 °F 55% 30.00 in 9.0 mi SE 2.3 mph - N/A   Clear
5:00 AM 62 °F - 46 °F 45% 30.02 in 9 mi SE 2.3 mph - -  
5:00 AM 60.8 °F - 46.4 °F 59% 30.02 in 9.0 mi Calm Calm - N/A   Clear
6:00 AM 60.8 °F - 46.4 °F 59% 30.03 in 9.0 mi South 2.3 mph - N/A   Clear
7:00 AM 60.8 °F - 46.4 °F 59% 30.04 in 9.0 mi SSE 4.6 mph - N/A   Clear
8:00 AM 63 °F - 47 °F 45% 30.04 in 9 mi SSE 9.2 mph - -  
8:00 AM 62.6 °F - 46.4 °F 55% 30.04 in 9.0 mi SSE 6.9 mph - N/A   Clear
9:00 AM 71.6 °F - 48.2 °F 43% 30.03 in 9.0 mi SSE 4.6 mph - N/A   Clear
10:00 AM 77.0 °F - 50.0 °F 39% 29.99 in 9.0 mi Calm Calm - N/A   Clear
11:00 AM 82 °F - 51 °F 24% 29.96 in 9 mi South 3.5 mph - -  
11:00 AM 82.4 °F - 51.8 °F 35% 29.96 in 9.0 mi South 2.3 mph - N/A   Clear
12:00 PM 87.8 °F - 51.8 °F 29% 29.92 in 9.0 mi South 3.5 mph - N/A   Clear
1:00 PM 93.2 °F - 51.8 °F 24% 29.88 in 9.0 mi South 3.5 mph - N/A   Clear
2:00 PM 97 °F - 53 °F 15% 29.85 in 9 mi South 5.8 mph - -  
2:00 PM 96.8 °F 94.4 °F 53.6 °F 23% 29.85 in 9.0 mi South 6.9 mph - N/A   Partly Cloudy
3:00 PM 100.4 °F 98.8 °F 55.4 °F 22% 29.82 in 9.0 mi South 3.5 mph - N/A   Partly Cloudy
4:00 PM 102.2 °F 100.9 °F 55.4 °F 21% 29.79 in 9.0 mi SW 3.5 mph - N/A   Clear
5:00 PM 103 °F - 55 °F 13% 29.77 in 9 mi South 9.2 mph - -  
5:00 PM 104.0 °F 102.9 °F 55.4 °F 20% 29.77 in 9.0 mi South 10.4 mph - N/A   Clear
6:00 PM 102.2 °F - 51.8 °F 18% 29.77 in 9.0 mi South 9.2 mph 17.3 mph N/A   Clear
7:00 PM 100.4 °F - 51.8 °F 20% 29.76 in 9.0 mi South 9.2 mph 23.0 mph N/A   Clear
8:00 PM 94 °F - 51 °F 14% 29.78 in 9 mi SSW 8.1 mph - -  
8:00 PM 95.0 °F - 51.8 °F 23% 29.78 in 9.0 mi SSW 8.1 mph - N/A   Clear
9:00 PM 93.2 °F - 51.8 °F 24% 29.79 in 9.0 mi SSW 10.4 mph - N/A   Clear
10:00 PM 91.4 °F - 51.8 °F 26% 29.82 in 9.0 mi SSW 15.0 mph 20.7 mph N/A   Clear
11:00 PM 88 °F - 54 °F 22% 29.83 in 9 mi SSW 17.3 mph - -  
11:00 PM 87.8 °F 85.7 °F 53.6 °F 31% 29.83 in 9.0 mi SSW 11.5 mph 32.2 mph N/A   Clear